sat.trackr.live / text

‹ back to catalog

BRO-9

NORAD 56185 · 2023-054H

PAYLOAD ACTIVE UNKNOWN

§ Identity

Operator
Country
FR
Launch date
2023-04-15
Launch site
AFWTR
Launch vehicle
Mass (kg)
RCS (m²)

External: N2YO · Heavens-Above · Gunter

§ Orbital elements

Epoch: 2026-06-24T09:05:50.930016Z

Period
87.92 min
Inclination
97.2846°
Eccentricity
0.0013592
Mean motion
16.37917889 rev/d
Perigee alt
162.4 km
Apogee alt
180.2 km
Semi-major
6,549.5 km
B*
7.1881e-4
RAAN
94.7711°
Arg perigee
210.9283°
Mean anomaly
149.1217°
Rev number
18,025

§ Raw data

BRO-91 56185U 23054H   26175.37906169  .07230581  24741-5  71881-3 0  99982 56185  97.2846  94.7711 0013592 210.9283 149.1217 16.37917889180257

JSON: /api/v1/satellites/56185 · /tle

For live sub-satellite position, see the globe view (requires WebGL).

§ Visibility from observer

Set your observer location to see the next 7 days of passes ≥ 10°. The values pass through the URL so the page stays shareable.

No JS? Fill the form by hand. The geolocation button needs JavaScript.

§ Radio — SatNOGS DB

ModeDescriptionDownlinkUplink
BPSK Mode S - Transmitter 2.261 GHz
FSK AX.100 Mode 5 Mode U - FSK9k6 - TLM 401.735 MHz
FSK AX.100 Mode 5 Telemetry 401.642 MHz
FSK AX.100 Mode 5 Mode U - FSK4k8 - TLM (inactive) 401.735 MHz

4 transmitters · refreshed weekly from db.satnogs.org